Starlink 2635

operational
NORAD ID: 48355 Int'l Des: 2021-038 Owner: SPXS Country: US Constellation: starlink
LEOCIRCULAR

Starlink 2635について

説明を読み込み中...

リアルタイム位置

3D地球を読み込み中...

次回通過

高度履歴

Altitude vs Time

uPlot chart will show altitude changes over time

軌道要素

1 48355U 21038C 26061.19321616 -.00003484 00000-0 -10849-3 0 9999
2 48355 53.1580 32.9460 0001429 82.8048 277.3115 15.29341624265937
Epoch: Mar 2, 2026 • Age: 42 hours

現在のステータス

高度 494.8 km
速度 7.62 km/s
衛星直下点 -47.11°S, 169.14°W
打ち上げ日 May 4, 2021
運用期間 4.8 years
タイプ internet

技術仕様

分類 Payload
質量 260.00 kg
乾燥質量 248.00 kg
総質量 260.00 kg
長さ 0.20 m
直径 2.80 m
スパン 9.00 m
形状 Box + pan
製造者 SPXS
バスタイプ Starlink
フェーズステータス In Orbit
所有者/国 SPXS/US

大規模コンステレーション

Loading constellations...